Flag for Malaysia Weather past 2 weeks in Kuching, Malaysia

Now
75 °F

Partly cloudy.


Feels Like: 74 °F
Forecast: 75 / 86 °F
Wind: 3 mph from Southeast

Location: Kuching Airport

Current Time: Dec 29, 2014 at 12:03:28 AM

Latest Report: Dec 28, 2014 at 11:30 PM


Visibility: N/A

Pressure: 29.89 "Hg

Humidity: 94%

Dew point: 73 °F

Location of KuchingLocation

Historic Weather in Kuching — Graph

°F

Kuching temperature yesterday

Maximum temperature yesterday: 90 °F (at 1:30 PM)
Minimum temperature yesterday: 73 °F (at 4:30 AM)
Average temperature yesterday: 79 °F

Past Weeks' High & Low Weather Summary

 TemperatureHumidityPressure
High93 °F (Dec 22, 3:00 PM)100% (Dec 16, 11:00 PM)29.92 "Hg (Dec 16, 11:00 PM)
Low73 °F (Dec 22, 4:30 AM)56% (Dec 16, 4:30 PM)29.65 "Hg (Dec 22, 3:30 PM)
Average80 °F85%29.81 "Hg
* Reported Dec 13 11:00 PM — Dec 28 11:00 PM, Kuching, Weather by CustomWeather, © 2014

Note: Actual official high and low records may vary slightly from our data, if they occured in-between our weather recording intervals... More about our weather records

Advertising

Kuching weather history for previous 24 hours

 ConditionsComfort  
Time TempWeatherWind HumidityBarometerVisibility
11:00 PM
Dec 28
75 °FLight rain. Partly cloudy.2 mph94%29.89 "HgN/A
10:30 PM75 °FLight rain. Partly cloudy.3 mph94%29.92 "HgN/A
10:00 PM75 °FLight rain. Partly cloudy.5 mph94%29.92 "Hg5 mi
9:30 PM75 °FLight rain. Partly cloudy.5 mph94%29.89 "Hg3 mi
9:00 PM75 °FLight rain. Partly cloudy.7 mph94%29.89 "Hg4 mi
8:30 PM75 °FThunderstorms. Partly cloudy.10 mph94%29.89 "Hg4 mi
8:00 PM77 °FThunderstorms. Partly cloudy.12 mph89%29.86 "Hg2 mi
7:30 PM77 °FThunderstorms. Passing clouds.12 mph89%29.86 "Hg2 mi
7:00 PM81 °FPassing clouds.8 mph79%29.83 "HgN/A
6:30 PM81 °FBroken clouds.5 mph84%29.80 "HgN/A
6:00 PM82 °FBroken clouds.8 mph79%29.80 "HgN/A
5:30 PM84 °FBroken clouds.6 mph74%29.77 "HgN/A
5:00 PM84 °FBroken clouds.5 mph74%29.77 "HgN/A
4:30 PM84 °FBroken clouds.3 mph70%29.74 "HgN/A
4:00 PM82 °FBroken clouds.10 mph74%29.74 "HgN/A
3:30 PM84 °FBroken clouds.9 mph70%29.74 "HgN/A
3:00 PM90 °FBroken clouds.2 mph59%29.74 "HgN/A
2:30 PM90 °FBroken clouds.5 mph63%29.74 "HgN/A
2:00 PM90 °FBroken clouds.3 mph63%29.77 "HgN/A
1:30 PM90 °FBroken clouds.5 mph63%29.80 "HgN/A
1:00 PM88 °FBroken clouds.3 mph62%29.80 "HgN/A
12:30 PM86 °FBroken clouds.6 mph66%29.83 "HgN/A
11:30 AM86 °FBroken clouds.2 mph66%29.86 "HgN/A
11:00 AM84 °FPartly sunny.2 mph70%29.86 "HgN/A
10:30 AM82 °FPartly sunny.3 mph79%29.86 "HgN/A
10:00 AM81 °FPartly sunny.3 mph84%29.86 "HgN/A
9:30 AM79 °FPartly sunny.3 mph84%29.86 "HgN/A
9:00 AM77 °FPartly sunny.3 mph89%29.86 "HgN/A
8:30 AM77 °FPartly sunny.No wind89%29.83 "HgN/A
8:00 AM75 °FPartly sunny.1 mph94%29.83 "HgN/A
7:30 AM75 °FPartly sunny.2 mph89%29.83 "HgN/A
7:00 AM73 °FBroken clouds.2 mph94%29.80 "HgN/A
6:30 AM73 °FPartly cloudy.2 mph94%29.80 "HgN/A
6:00 AM73 °FPartly cloudy.2 mph94%29.80 "HgN/A
5:30 AM73 °FPartly cloudy.1 mph94%29.80 "HgN/A
5:00 AM73 °FPartly cloudy.2 mph94%29.80 "HgN/A
4:30 AM73 °FPassing clouds.2 mph100%29.77 "HgN/A
4:00 AM75 °FPartly cloudy.2 mph94%29.80 "HgN/A
3:30 AM75 °FPartly cloudy.2 mph94%29.80 "HgN/A
3:00 AM75 °FPartly cloudy.3 mph94%29.80 "HgN/A
2:30 AM75 °FPartly cloudy.No wind94%29.83 "HgN/A
2:00 AM75 °FPartly cloudy.1 mph94%29.83 "HgN/A
1:30 AM75 °FPartly cloudy.1 mph94%29.83 "HgN/A
1:00 AM75 °FPartly cloudy.1 mph94%29.83 "HgN/A
12:30 AM75 °FPartly cloudy.3 mph94%29.83 "HgN/A
12:00 AM75 °FPartly cloudy.1 mph94%29.86 "HgN/A
Weather by CustomWeather, © 2014

See weather overviewHow to use our weather pages